Vertical_Velocity
-4 1 -1 4 10 5 4 4 1 25 17 -2 -0 -0 -4 -1 1 0 -0 -2 -1 -2 -1 -0 1 -3 -2 -0 -4 -1 -7 -0 0 -12 -9 -4 -3 -5 -2 4 -2 -1 -2 -26
-2 -4 -4 1 8 1 4 5 5 6 1 -3 2 4 1 -2 0 0 1 -0 -2 -0 -1 -1 1 -0 -4 1 -1 -7 -2 -1 -1 -10 1 5 2 -2 -1 -0 2 -6 2 -19
5 1 -4 1 -3 9 -0 3 2 5 7 4 -5 -1 1 1 2 0 -0 -1 -0 1 2 1 -2 -0 -2 2 -2 1 0 1 -2 -2 -8 5 3 1 0 0 5 -8 -12 -10
-3 -1 -3 2 0 9 5 3 -1 -2 0 0 1 -0 -2 0 1 -0 -0 4 -0 -2 1 1 -0 -0 -2 -1 -3 2 0 1 3 -5 -3 6 -1 -1 -0 2 -13 2 -17 0
2 -1 -8 7 7 -12 3 3 6 2 1 1 2 -0 0 -3 2 -6 -0 2 -0 1 0 -4 -1 1 0 -2 2 -0 0 -2 2 -7 -3 3 2 -0 0 -0 -1 3 3 -8
-1 -2 -2 -2 6 -1 3 9 -1 -5 1 2 0 -3 -1 -2 -1 -1 -3 -4 3 4 -11 -4 -11 -0 0 -1 1 -0 1 1 1 -9 0 -0 -0 -5 -2 -2 0 -6 0 -22
2 -5 -2 4 -2 12 18 8 3 -1 2 -0 -3 -1 -1 -1 -4 -2 -2 4 2 -5 -0 0 8 8 2 3 -3 1 0 1 1 -2 -1 -2 -1 -0 -3 -4 -3 0 2 -2
-0 -2 -9 1 11 5 3 4 10 1 1 -3 6 2 -2 2 1 2 1 1 -6 -2 1 2 2 1 2 -3 -2 2 1 1 -0 4 1 -5 -5 -2 -2 -4 -8 -4 -2 -2
3 10 6 0 -13 3 4 -3 1 4 -3 -2 -3 -1 -3 -1 -0 2 -2 -4 4 5 0 1 0 -2 -2 -2 1 0 2 2 3 -1 2 1 -1 0 -1 0 -7 -2 0 -3
0 -3 -2 -8 7 1 4 -3 8 5 -2 1 -1 -2 -5 -0 0 -1 -0 -1 5 6 0 1 -0 -2 0 -1 0 0 1 2 -0 -0 -0 -8 -1 1 -0 -8 -8 0 -3 -4
-1 -6 -3 -0 4 1 2 -3 3 5 -0 2 1 -0 -6 0 -0 -1 -2 2 2 3 3 1 -2 0 -4 0 -1 -2 -3 -2 -1 1 1 -3 0 0 2 -4 -1 -0 0 -0
1 -4 -5 -4 2 -2 3 5 1 7 3 -1 0 -0 0 -1 0 -6 1 -2 -0 -2 0 1 0 0 1 -2 -2 0 -1 -7 -5 -7 -11 -2 -1 -1 -1 1 3 1 -1 0
-1 -5 -1 1 -1 -1 7 -2 -0 -1 -3 -1 -1 -3 5 2 0 1 -2 0 0 1 1 -0 -1 0 -2 -2 -3 1 -1 -0 -1 -2 -3 -2 1 -0 -0 3 -0 1 0 1
-5 2 3 1 2 4 2 -1 10 4 1 -1 -2 1 -2 -1 -3 -4 1 -1 -1 1 5 0 -0 0 -2 -1 -3 -1 -5 -1 -2 -3 -4 -1 -0 1 -1 0 1 -1 0 1
-2 -2 -1 -0 -0 -2 -2 -7 1 1 2 2 -1 -2 1 0 1 3 6 4 1 -0 2 1 -2 0 -1 -0 -2 -0 -3 -5 -4 -7 -3 -2 1 1 0 -1 -2 0 0 -1
-2 -3 -2 0 -1 -5 3 2 3 -1 2 -1 -1 -3 -0 1 1 1 1 0 0 1 2 -1 -1 1 -2 -0 -0 -5 -1 -1 1 -1 0 2 -0 1 1 -1 0 -1 -1 4
-5 -1 1 -3 -2 1 1 4 2 1 -0 2 -2 -1 2 1 1 1 0 1 -0 3 -0 1 0 1 -3 1 -0 -4 -1 -2 1 2 -1 0 2 -2 0 0 0 -0 -2 2
-2 -0 -6 -4 1 -1 0 4 -1 2 -1 1 0 -2 0 1 1 0 0 0 0 1 0 0 0 0 0 0 -5 -0 1 -0 1 1 0 1 0 -1 1 1 4 -2 -0 1
-2 -5 -2 1 -2 -4 3 1 -1 4 1 -0 0 -1 -2 -0 1 0 1 1 1 -0 0 0 1 0 -2 -8 -1 -0 -1 -3 -3 0 2 2 3 -1 -0 3 -0 -2 -1 3
0 2 2 1 -4 7 12 7 -1 -3 0 1 0 0 -1 -1 -0 -0 0 -0 0 -0 0 -0 1 -4 -5 -1 0 1 1 -0 -1 -4 2 1 2 -1 1 -0 3 3 -1 -1
-4 -4 0 0 5 4 3 -0 -0 1 1 0 -2 -1 -2 0 -1 -0 0 -0 -0 0 -4 2 -1 -3 -2 0 1 1 1 1 1 1 1 2 5 -2 -3 -0 3 1 1 -1
1 3 -1 3 0 2 -1 -0 -0 1 -4 1 -1 -4 1 -1 0 -1 -0 -0 -0 -2 -0 1 -1 -6 -0 1 1 1 1 2 2 1 1 1 2 -0 -0 -0 -1 1 2 1
-2 1 0 1 -2 1 1 0 1 1 -1 -1 0 -1 -1 0 1 -1 -1 -0 -1 -1 -0 -3 -6 -1 -0 -1 -0 0 1 1 1 -0 2 3 1 4 4 -4 3 0 -0 2
0 1 -0 0 1 -0 -1 -0 -1 1 0 1 -1 -0 -1 0 -2 -0 -0 1 -1 -1 0 -6 -3 -0 1 1 -0 1 1 1 1 1 1 1 2 -0 2 4 1 1 -1 -4
1 1 -1 1 1 0 -0 0 0 -1 -0 2 -1 -2 -2 0 -1 -1 -1 -0 -1 -3 -6 -3 -1 -0 1 -0 -0 -0 -0 0 -0 0 -1 1 2 -0 -2 2 -1 0 -3 -4
1 1 0 -1 0 -1 -0 -2 -1 -2 1 2 2 -1 -0 -0 -2 -1 -3 -2 -4 -6 -2 -0 0 -0 1 -0 -0 0 1 1 -0 0 1 -0 2 -1 -2 1 3 -0 4 -2
1 -1 -1 0 1 0 0 1 -0 1 3 -1 -1 1 -7 -4 -2 -1 -2 -4 -4 -1 -1 0 -0 -0 1 1 0 -1 -1 -0 2 0 1 1 3 2 0 -4 1 3 1 0
Height
1417 1411 1405 1398 1389 1380 1378 1379 1380 1376 1381 1395 1401 1397 1397 1401 1408 1410 1413 1414 1417 1422 1423 1426 1432 1435 1427 1425 1431 1439 1437 1440 1434 1425 1411 1412 1411 1417 1416 1415 1421 1417 1423 1387
1414 1409 1403 1396 1390 1385 1382 1379 1376 1379 1383 1391 1395 1395 1398 1401 1407 1410 1414 1416 1416 1420 1423 1427 1425 1425 1422 1423 1428 1430 1433 1436 1434 1420 1410 1410 1411 1407 1407 1405 1409 1403 1415 1377
1412 1407 1401 1395 1390 1386 1384 1381 1376 1377 1384 1385 1388 1392 1397 1402 1404 1409 1412 1415 1418 1421 1422 1423 1424 1422 1419 1420 1423 1425 1427 1426 1424 1412 1394 1398 1400 1396 1398 1400 1399 1389 1386 1376
1410 1405 1400 1394 1389 1384 1381 1379 1377 1378 1381 1388 1388 1389 1391 1400 1406 1407 1411 1415 1416 1417 1418 1420 1419 1420 1419 1417 1418 1422 1424 1417 1415 1401 1393 1385 1382 1382 1387 1390 1382 1393 1370 1374
1408 1405 1399 1393 1386 1380 1378 1377 1375 1377 1378 1385 1390 1389 1397 1398 1402 1405 1408 1411 1411 1416 1415 1415 1415 1415 1414 1413 1416 1419 1419 1410 1408 1392 1382 1376 1369 1368 1374 1378 1380 1381 1375 1369
1407 1403 1399 1394 1389 1384 1382 1377 1377 1379 1381 1383 1388 1388 1394 1396 1398 1401 1402 1406 1410 1412 1411 1412 1411 1412 1412 1411 1413 1412 1414 1413 1406 1381 1376 1371 1359 1362 1364 1369 1369 1368 1376 1363
1405 1401 1395 1393 1390 1388 1384 1380 1379 1380 1377 1383 1383 1386 1392 1394 1396 1398 1401 1404 1406 1406 1406 1406 1406 1406 1404 1405 1406 1409 1408 1408 1406 1387 1377 1366 1357 1351 1353 1361 1360 1363 1364 1365
1404 1400 1394 1390 1388 1383 1380 1379 1380 1377 1375 1379 1384 1386 1390 1393 1394 1396 1398 1399 1401 1403 1406 1404 1401 1403 1402 1393 1394 1396 1400 1402 1396 1385 1380 1372 1354 1359 1359 1365 1357 1357 1357 1358
1399 1398 1394 1388 1387 1381 1375 1372 1375 1375 1375 1378 1379 1384 1388 1390 1393 1395 1394 1395 1396 1400 1402 1400 1398 1404 1395 1388 1384 1390 1394 1396 1396 1389 1383 1378 1361 1359 1359 1359 1353 1345 1353 1354
1398 1394 1391 1389 1384 1379 1374 1372 1372 1374 1374 1377 1379 1382 1384 1387 1390 1392 1392 1392 1392 1393 1395 1394 1395 1393 1390 1389 1382 1387 1390 1391 1390 1390 1387 1376 1364 1361 1361 1365 1360 1348 1350 1352
1397 1394 1390 1387 1383 1378 1374 1370 1373 1374 1374 1376 1377 1379 1381 1384 1387 1389 1391 1391 1387 1389 1389 1390 1391 1396 1389 1389 1383 1379 1383 1385 1385 1387 1388 1383 1363 1364 1363 1359 1353 1352 1351 1353
1395 1392 1389 1386 1383 1379 1374 1371 1374 1375 1376 1377 1377 1378 1380 1381 1382 1385 1386 1386 1384 1382 1384 1385 1385 1389 1389 1385 1385 1382 1383 1378 1380 1381 1376 1364 1362 1362 1359 1355 1353 1353 1352 1352
1393 1391 1387 1384 1381 1378 1375 1371 1372 1375 1376 1376 1376 1375 1377 1378 1379 1380 1383 1382 1382 1379 1379 1379 1378 1379 1382 1384 1382 1379 1375 1373 1375 1374 1364 1361 1360 1360 1358 1355 1353 1350 1350 1353
1390 1388 1385 1381 1378 1374 1372 1370 1370 1375 1376 1375 1374 1373 1373 1373 1374 1376 1378 1378 1379 1379 1378 1377 1377 1379 1375 1377 1376 1376 1371 1372 1371 1370 1361 1359 1356 1358 1358 1356 1354 1354 1356 1357
1387 1384 1381 1378 1374 1370 1369 1370 1370 1373 1377 1373 1372 1371 1371 1371 1371 1372 1373 1375 1377 1377 1376 1374 1374 1372 1375 1375 1374 1373 1365 1363 1368 1365 1356 1357 1358 1359 1359 1359 1359 1360 1359 1362
1382 1379 1376 1374 1372 1371 1369 1371 1370 1372 1374 1375 1374 1371 1370 1371 1370 1370 1371 1373 1374 1374 1371 1370 1369 1369 1370 1372 1368 1357 1356 1356 1357 1357 1356 1356 1357 1360 1362 1362 1362 1364 1366 1369
1377 1374 1371 1369 1369 1369 1369 1369 1369 1371 1374 1375 1373 1370 1370 1370 1370 1370 1370 1370 1371 1371 1369 1367 1366 1366 1367 1367 1366 1353 1353 1353 1353 1355 1355 1358 1358 1360 1363 1364 1366 1370 1373 1376
1371 1367 1364 1364 1365 1366 1367 1368 1368 1370 1373 1374 1373 1371 1370 1370 1368 1369 1370 1369 1368 1368 1367 1366 1366 1366 1366 1362 1349 1348 1350 1350 1351 1352 1353 1353 1355 1359 1363 1366 1367 1372 1376 1380
1365 1361 1360 1361 1364 1366 1366 1368 1369 1371 1375 1372 1372 1371 1370 1369 1368 1368 1369 1369 1368 1368 1367 1366 1367 1363 1361 1346 1344 1344 1346 1347 1348 1351 1352 1354 1355 1359 1364 1367 1372 1373 1379 1384
1364 1363 1362 1362 1363 1364 1366 1368 1372 1372 1371 1370 1369 1368 1368 1369 1368 1369 1369 1369 1369 1369 1368 1367 1365 1355 1342 1342 1343 1343 1343 1345 1347 1349 1353 1355 1358 1361 1365 1370 1373 1377 1381 1386
1365 1363 1362 1361 1362 1364 1366 1367 1368 1370 1370 1367 1365 1366 1366 1368 1368 1368 1370 1371 1372 1370 1372 1367 1361 1352 1341 1339 1341 1342 1343 1345 1348 1349 1350 1352 1355 1358 1364 1370 1376 1381 1385 1389
1369 1368 1364 1362 1362 1363 1364 1366 1367 1365 1364 1362 1362 1364 1364 1366 1367 1368 1370 1370 1373 1372 1372 1369 1360 1345 1340 1340 1340 1342 1343 1346 1349 1350 1351 1354 1358 1363 1369 1374 1379 1384 1389 1393
1367 1367 1365 1364 1363 1362 1359 1361 1362 1362 1359 1358 1359 1363 1363 1366 1367 1369 1370 1370 1369 1373 1372 1364 1352 1341 1341 1341 1341 1342 1344 1347 1350 1351 1354 1357 1361 1368 1372 1376 1383 1388 1393 1398
1368 1366 1364 1363 1358 1358 1358 1358 1357 1358 1357 1357 1358 1362 1364 1366 1369 1370 1370 1374 1375 1378 1374 1362 1345 1340 1341 1341 1342 1343 1345 1348 1351 1353 1356 1360 1364 1369 1375 1381 1386 1391 1396 1402
1367 1366 1362 1359 1360 1360 1360 1359 1359 1359 1358 1358 1359 1362 1363 1367 1369 1371 1375 1375 1372 1367 1356 1347 1340 1340 1341 1341 1342 1344 1346 1349 1351 1354 1358 1362 1367 1372 1378 1384 1390 1395 1399 1404
1365 1364 1363 1361 1361 1360 1360 1359 1358 1358 1357 1359 1359 1362 1365 1364 1368 1372 1373 1374 1363 1346 1345 1340 1339 1340 1341 1342 1343 1345 1348 1350 1352 1356 1360 1365 1370 1375 1380 1387 1393 1398 1401 1405
1364 1364 1364 1363 1363 1361 1360 1358 1357 1357 1357 1357 1357 1358 1353 1366 1374 1373 1362 1356 1344 1340 1340 1339 1341 1342 1343 1344 1344 1347 1349 1352 1355 1358 1363 1368 1374 1379 1384 1388 1395 1400 1404 1409